{"data":{"norad_id":46156,"epoch":"2026-05-24T23:59:17.193120Z","epoch_age_seconds":68287,"freshness":"FRESH","line1":"1 46156U 20057AR  26144.99950455  .00142257  00000+0  80231-3 0  9996","line2":"2 46156  53.0398 241.0980 0005233 307.8827  52.1720 15.78238837320121","mean_motion":15.78238837,"eccentricity":0.0005233,"inclination_deg":53.0398,"raan_deg":241.098,"arg_perigee_deg":307.8827,"mean_anomaly_deg":52.172,"bstar":0.00080231,"rev_number":32012,"period_min":91.240943147567,"perigee_km":331.917249851,"apogee_km":338.94366955432,"semimajor_km":6713.5674597027,"source":"CELESTRAK","updated_at":"2026-05-25T13:38:16.467780Z"}}